Location: ????????
(55.3939°N, 37.4780°E)
Time: 21:34:31
(UTC+00:00)

Cosmos 1544 Rocket - Pass Details

Date: 14 April 2026
Orbit: 597 x 624 km, 82.5° (Epoch: 16 May)

Event Time Altitude Azimuth Distance (km) Brightness Sun altitude
Exits shadow 22:20:01 55° 104° (ESE) 756 3.9 -24.1°
Maximum altitude 22:20:10 55° 96° (E) 754 3.9 -24.1°
Drops below altitude 10° 22:24:30 10° 19° (NNE) 2,004 7.3 -24.0°
Sets 22:26:46 0° 15° (NNE) 2,912 8.5 -23.9°
